Regional Weather Roundup
Issued by NWS

Home | Current Version | Previous Version | Graphics & Text | Print | Product List | Glossary On
Versions: 1 2 3 4 5 6 7 8 9 10 11 12 13 14 15 16 17 18 19 20 21 22 23 24 25 26 27 28 29 30 31 32 33 34 35 36 37 38 39 40 41 42 43 44 45 46 47 48 49 50
000
ASUS43 KFSD 231610
RWRSD

WEATHER ROUNDUP FOR SOUTH DAKOTA
NATIONAL WEATHER SERVICE SIOUX FALLS SD
1100 AM CDT MON APR 23 2018

NOTE: "FAIR" INDICATES FEW OR NO CLOUDS BELOW 12,000 FEET WITH NO
SIGNIFICANT WEATHER AND/OR OBSTRUCTIONS TO VISIBILITY.


SDZ001>005-009-010-012>017-231700-
NORTHWEST AND NORTH CENTRAL SOUTH DAKOTA

CITY           SKY/WX    TMP DP  RH WIND       PRES   REMARKS
FAITH            N/A     58  42  55 E12       30.12S
MOBRIDGE       SUNNY     58  40  51 CALM      30.14S
$$

SDZ012>016-024>037-041>051-057-063-072>074-231700-
SOUTHWEST AND SOUTH CENTRAL SOUTH DAKOTA

CITY           SKY/WX    TMP DP  RH WIND       PRES   REMARKS
RAPID CTY ARPT SUNNY     53  42  66 SE7       30.10R
PIERRE         SUNNY     59  42  53 SE10      30.14F
CUSTER         SUNNY     54  33  45 E12       30.10S
PHILIP         SUNNY     58  40  51 E6        30.12S
PINE RIDGE     SUNNY     58  40  51 S10       30.10F
SPEARFISH      FAIR      54  41  62 NE13      30.09F
WINNER         FAIR      61  38  42 S13       30.16F
$$

SDZ004>011-016>023-039-040-231700-
NORTHEAST SOUTH DAKOTA

CITY           SKY/WX    TMP DP  RH WIND       PRES   REMARKS
ABERDEEN       SUNNY     60  42  51 S7        30.19F
WATERTOWN      SUNNY     57  36  45 S10       30.20S
SISSETON         N/A     63  40  42 VRB5      30.18F
$$

SDZ017-020-022-023-036>040-048>070-231700-
SOUTHEAST SOUTH DAKOTA

CITY           SKY/WX    TMP DP  RH WIND       PRES   REMARKS
SIOUX FALLS    NOT AVBL
HURON          NOT AVBL
MITCHELL       SUNNY     59  41  51 S6        30.20S
YANKTON        SUNNY     57  40  52 VRB6      30.20S
$$

ABBREVIATIONS USED IN REMARKS
   TC - TEMPERATURE IN CELSIUS
  WCI - WIND CHILL INDEX
   HX - HEAT INDEX
  VSB - VISIBILITY





USA.gov is the U.S. government's official web portal to all federal, state and local government web resources and services.